SL-8 DEB, 21183

Orbit data source: Space-Track

SL-8 DEB, 21183 is space debris in LEO originally from a launch on Tue, 12 Feb 1991 UTC launched from the Plesetsk Missile And Space Complex (PKMTR). Debris objects in space refer to the collection of defunct objects orbiting the Earth. Examples of debris include non-operational satellites, rocket bodies, and fragments generated from explosions, collisions, or faulty payload assembly.

Loading next visibility...
Identifier
21183, 1991-009AW
Orbit
LEO
Country
Flag of CISCIS
Related business
Manufacturer
Unknown
Mission
Spacecraft
Bus & Motor
Unknown
Mass
Unknown
Launch date (UTC)
1991-02-12 (35 years ago)
Launch vehicle
Unknown
Launch site
Plesetsk Missile And Space Complex (PKMTR)
Object type
Payload
Rocket body
Debris
Shape & HBR
Unknown shape, 0.2 m
Radar Cross Section
Medium (>0.1 m² and <1 m²)

Expand to show TLE details & history
Last TLE update: 3 days ago

TLE from 3 days ago
0 SL-8 DEB
1 21183U 91009AW  26171.38153104  .00000209  00000-0  24050-2 0  9990
2 21183  74.1858  35.4588 0217277 237.8373 311.5618 12.05600847552079
Epoch: 2026-06-20T09:09Z
TLE epoch observation values (Epoch: 2026-06-20T09:09:24.281Z)
Latitude
-7.35531°
Longitude
171.59573°
Altitude
1,545.819 km
Speed
7.144 km/s
True Right ascension
14h 30m 10s
True Declination
-7° 18' 58"
Sunlit
Object was in full shadow at epoch
Visualization orbit readout
Latitude
Unknown
Longitude
Unknown
Altitude
Unknown
Speed
Unknown
Apparent Right ascension
Unknown
Apparent Declination
Unknown
Sunlit
N/A
Visualization observer readout
Local Sidereal Time
08:23:59
Azimuth
Unknown
Elevation
Unknown
Doppler factor
Unknown
Orbital elements
Apogee altitude
1,828.269 km
Perigee altitude
1,479.24 km
Semi-major axis
8,031.892 km
Eccentricity
0.02173
Inclination
74.1858°
RAAN
35.4588°
Arg. of periapsis
237.8373°
True anomaly
309.66501°
Mean anomaly
311.5618°
Eccentric anomaly
310.61682°
Mean motion
3.0152 °/min
Orbital period
119.39 mins
BSTAR
0.002405
Loading maneuver chart data...
Computing Atmospheric mass density...
Loading historical data...
Loading historical data...
Loading historical data...
Loading historical data...
Loading historical data...
Loading historical data...
Loading historical data...

Documentation

Showing up to 5 results
|